Liberal, KS

11:30 AM CST on December 14, 2017 (GMT -0600)
Liberal Municipal

Weather History for KLBL - January, 2014

Change the Weather History Date:

Wednesday, January 8, 2014

  Actual Average Record
Temperature  
Mean Temperature 30 °F -  
Max Temperature 35 °F 42 °F 75 °F (2002)
Min Temperature 24 °F 17 °F -9 °F (1988)
Degree Days  
Heating Degree Days 36    
Moisture  
Dew Point 21 °F    
Average Humidity 68    
Maximum Humidity 80    
Minimum Humidity 56    
Precipitation  
Precipitation 0.00 in - - ()
Sea Level Pressure  
Sea Level Pressure 30.06 in    
Wind  
Wind Speed 10 mph (NE)    
Max Wind Speed 21 mph    
Max Gust Speed 24 mph    
Visibility 10 miles    
Events      
Averages and records for this station are not official NWS values.
T = Trace of Precipitation, MM = Missing Value Source: NWS Daily Summary

Daily Weather History Graph

Daily Weather History Graph

Search for Another Location

Airport or City:

Trip Planner

Search our weather history database for the weather conditions in past years. The results will help you decide how hot, cold, wet, or windy it might be!

Date:

Astronomy

Jan. 08, 2014 Rise Set
Actual Time 7:57 AM CST 5:43 PM CST
Civil Twilight 7:28 AM CST 6:12 PM CST
Nautical Twilight 6:56 AM CST 6:44 PM CST
Astronomical Twilight 6:25 AM CST 7:16 PM CST
Moon 12:33 PM CST (1/8) 1:10 AM CST (1/8)
Length of Visible Light 10h 43m
Length of Day
9h 46m
First Quarter, 56% of the Moon is Illuminated
Jan 8
First Quarter
Jan 15
Full
Jan 23
Last Quarter
Jan 30
New
Feb 6
First Quarter

Hourly Weather History & Observations

Time (CST) Temp. Windchill Dew Point Humidity Pressure Visibility Wind Dir Wind Speed Gust Speed Precip Events Conditions
12:15 AM 35.6 °F 29.2 °F 21.2 °F 56% 29.91 in 10.0 mi South 8.1 mph - N/A   Clear
12:35 AM 35.6 °F 29.2 °F 21.2 °F 56% 29.90 in 10.0 mi SSE 8.1 mph - N/A   Clear
12:55 AM 33.8 °F 28.6 °F 21.2 °F 60% 29.90 in 10.0 mi SSE 5.8 mph - N/A   Clear
1:15 AM 33.8 °F 28.6 °F 19.4 °F 56% 29.89 in 10.0 mi SSE 5.8 mph - N/A   Clear
1:35 AM 33.8 °F 27.7 °F 21.2 °F 60% 29.89 in 10.0 mi SSE 6.9 mph - N/A   Clear
1:55 AM 33.8 °F 28.6 °F 21.2 °F 60% 29.89 in 10.0 mi SSE 5.8 mph - N/A   Clear
2:15 AM 33.8 °F 27.7 °F 19.4 °F 56% 29.89 in 10.0 mi SE 6.9 mph - N/A   Clear
2:35 AM 33.8 °F 27.0 °F 19.4 °F 56% 29.88 in 10.0 mi ESE 8.1 mph - N/A   Clear
2:55 AM 33.8 °F 25.8 °F 21.2 °F 60% 29.87 in 10.0 mi SE 10.4 mph - N/A   Scattered Clouds
3:15 AM 33.8 °F 27.0 °F 21.2 °F 60% 29.87 in 10.0 mi ESE 8.1 mph - N/A   Scattered Clouds
3:35 AM 32.0 °F 26.4 °F 21.2 °F 64% 29.88 in 10.0 mi East 5.8 mph - N/A   Partly Cloudy
3:55 AM 32.0 °F 24.8 °F 19.4 °F 60% 29.87 in 10.0 mi East 8.1 mph - N/A   Clear
4:15 AM 32.0 °F 26.4 °F 21.2 °F 64% 29.89 in 10.0 mi East 5.8 mph - N/A   Mostly Cloudy
4:35 AM 30.2 °F 22.6 °F 19.4 °F 64% 29.91 in 10.0 mi NE 8.1 mph - N/A   Scattered Clouds
4:55 AM 30.2 °F 22.6 °F 21.2 °F 69% 29.90 in 10.0 mi ENE 8.1 mph - N/A   Clear
5:15 AM 30.2 °F 21.9 °F 21.2 °F 69% 29.90 in 10.0 mi ENE 9.2 mph - N/A   Clear
5:35 AM 30.2 °F 21.9 °F 19.4 °F 64% 29.91 in 10.0 mi NE 9.2 mph - N/A   Clear
5:55 AM 28.4 °F 19.7 °F 19.4 °F 69% 29.92 in 10.0 mi ENE 9.2 mph - N/A   Clear
6:15 AM 28.4 °F 19.7 °F 19.4 °F 69% 29.92 in 10.0 mi NE 9.2 mph - N/A   Clear
6:35 AM 28.4 °F 20.4 °F 19.4 °F 69% 29.94 in 10.0 mi NNE 8.1 mph - N/A   Clear
6:55 AM 24.8 °F 15.3 °F 17.6 °F 74% 29.96 in 10.0 mi NNE 9.2 mph - N/A   Clear
7:15 AM 24.8 °F 14.0 °F 17.6 °F 74% 29.97 in 10.0 mi North 11.5 mph - N/A   Clear
7:35 AM 24.8 °F 13.4 °F 17.6 °F 74% 29.98 in 10.0 mi North 12.7 mph - N/A   Clear
7:55 AM 24.8 °F 13.4 °F 17.6 °F 74% 30.00 in 10.0 mi North 12.7 mph - N/A   Clear
8:15 AM 24.8 °F 11.9 °F 19.4 °F 80% 30.01 in 10.0 mi North 16.1 mph - N/A   Clear
8:35 AM 26.6 °F 14.7 °F 19.4 °F 74% 30.04 in 10.0 mi North 15.0 mph - N/A   Clear
8:55 AM 26.6 °F 14.3 °F 19.4 °F 74% 30.05 in 10.0 mi NNE 16.1 mph - N/A   Clear
9:15 AM 26.6 °F 13.8 °F 21.2 °F 80% 30.07 in 10.0 mi NNE 17.3 mph - N/A   Clear
9:35 AM 28.4 °F 15.8 °F 21.2 °F 74% 30.07 in 10.0 mi NNE 18.4 mph - N/A   Scattered Clouds
9:55 AM 28.4 °F 16.2 °F 23.0 °F 80% 30.08 in 10.0 mi NNE 17.3 mph 24.2 mph N/A   Scattered Clouds
10:15 AM 28.4 °F 15.4 °F 23.0 °F 80% 30.09 in 10.0 mi NNE 19.6 mph - N/A   Mostly Cloudy
10:35 AM 30.2 °F 18.1 °F 23.0 °F 75% 30.10 in 10.0 mi NNE 18.4 mph 21.9 mph N/A   Overcast
10:55 AM 28.4 °F 15.8 °F 21.2 °F 74% 30.11 in 10.0 mi North 18.4 mph - N/A   Mostly Cloudy
11:15 AM 30.2 °F 18.1 °F 23.0 °F 75% 30.11 in 10.0 mi North 18.4 mph - N/A   Overcast
11:35 AM 30.2 °F 18.1 °F 21.2 °F 69% 30.11 in 10.0 mi North 18.4 mph - N/A   Overcast
11:55 AM 30.2 °F 17.4 °F 21.2 °F 69% 30.11 in 10.0 mi North 20.7 mph - N/A   Overcast
12:15 PM 30.2 °F 17.4 °F 23.0 °F 75% 30.12 in 10.0 mi North 20.7 mph - N/A   Overcast
12:35 PM 30.2 °F 18.5 °F 21.2 °F 69% 30.10 in 10.0 mi NNE 17.3 mph - N/A   Overcast
12:55 PM 30.2 °F 18.1 °F 21.2 °F 69% 30.10 in 10.0 mi North 18.4 mph 24.2 mph N/A   Overcast
1:15 PM 30.2 °F 18.1 °F 21.2 °F 69% 30.10 in 10.0 mi North 18.4 mph - N/A   Overcast
1:35 PM 30.2 °F 19.8 °F 21.2 °F 69% 30.10 in 10.0 mi North 13.8 mph - N/A   Overcast
1:55 PM 30.2 °F 20.8 °F 21.2 °F 69% 30.10 in 10.0 mi NNE 11.5 mph - N/A   Overcast
2:15 PM 32.0 °F 22.5 °F 23.0 °F 69% 30.10 in 10.0 mi North 12.7 mph - N/A   Overcast
2:35 PM 33.8 °F 24.8 °F 24.8 °F 70% 30.10 in 10.0 mi NNE 12.7 mph 18.4 mph N/A   Mostly Cloudy
2:55 PM 33.8 °F 25.3 °F 24.8 °F 70% 30.10 in 10.0 mi North 11.5 mph - N/A   Scattered Clouds
3:15 PM 35.6 °F 27.1 °F 24.8 °F 65% 30.11 in 10.0 mi NNE 12.7 mph - N/A   Scattered Clouds
3:35 PM 35.6 °F 27.5 °F 24.8 °F 65% 30.11 in 10.0 mi North 11.5 mph - N/A   Clear
3:55 PM 35.6 °F 28.0 °F 23.0 °F 60% 30.11 in 10.0 mi NNE 10.4 mph - N/A   Clear
4:15 PM 35.6 °F 27.1 °F 24.8 °F 65% 30.11 in 10.0 mi NNE 12.7 mph - N/A   Clear
4:35 PM 35.6 °F 27.1 °F 24.8 °F 65% 30.11 in 10.0 mi NNE 12.7 mph - N/A   Clear
4:55 PM 35.6 °F 27.5 °F 23.0 °F 60% 30.11 in 10.0 mi NE 11.5 mph - N/A   Clear
5:15 PM 35.6 °F 27.1 °F 21.2 °F 56% 30.12 in 10.0 mi NE 12.7 mph - N/A   Clear
5:35 PM 33.8 °F 26.4 °F 21.2 °F 60% 30.12 in 10.0 mi NE 9.2 mph - N/A   Mostly Cloudy
5:55 PM 33.8 °F 25.8 °F 21.2 °F 60% 30.13 in 10.0 mi ENE 10.4 mph - N/A   Partly Cloudy
6:15 PM 32.0 °F 24.8 °F 21.2 °F 64% 30.14 in 10.0 mi ENE 8.1 mph - N/A   Clear
6:35 PM 30.2 °F 23.4 °F 19.4 °F 64% 30.15 in 10.0 mi ENE 6.9 mph - N/A   Clear
6:55 PM 30.2 °F 24.3 °F 19.4 °F 64% 30.16 in 10.0 mi ENE 5.8 mph - N/A   Clear
7:15 PM 28.4 °F 21.2 °F 19.4 °F 69% 30.16 in 10.0 mi ENE 6.9 mph - N/A   Clear
7:35 PM 28.4 °F 21.2 °F 19.4 °F 69% 30.16 in 10.0 mi ENE 6.9 mph - N/A   Clear
7:55 PM 28.4 °F 21.2 °F 19.4 °F 69% 30.17 in 10.0 mi ENE 6.9 mph - N/A   Clear
8:15 PM 28.4 °F 24.6 °F 19.4 °F 69% 30.19 in 10.0 mi East 3.5 mph - N/A   Clear
8:35 PM 28.4 °F 23.3 °F 19.4 °F 69% 30.20 in 10.0 mi ENE 4.6 mph - N/A   Clear
8:55 PM 28.4 °F 24.6 °F 19.4 °F 69% 30.21 in 10.0 mi East 3.5 mph - N/A   Clear
9:15 PM 26.6 °F 21.2 °F 19.4 °F 74% 30.20 in 10.0 mi ENE 4.6 mph - N/A   Clear
9:35 PM 26.6 °F 21.2 °F 19.4 °F 74% 30.20 in 10.0 mi ENE 4.6 mph - N/A   Clear
9:55 PM 26.6 °F 20.0 °F 19.4 °F 74% 30.20 in 10.0 mi East 5.8 mph - N/A   Clear
10:15 PM 26.6 °F 21.2 °F 17.6 °F 69% 30.19 in 10.0 mi ENE 4.6 mph - N/A   Clear
10:35 PM 26.6 °F 22.6 °F 17.6 °F 69% 30.20 in 10.0 mi NE 3.5 mph - N/A   Clear
10:55 PM 26.6 °F 20.0 °F 17.6 °F 69% 30.18 in 10.0 mi ENE 5.8 mph - N/A   Mostly Cloudy
11:15 PM 24.8 °F 17.9 °F 19.4 °F 80% 30.18 in 10.0 mi NE 5.8 mph - N/A   Mostly Cloudy
11:35 PM 24.8 °F 17.9 °F 19.4 °F 80% 30.17 in 10.0 mi NE 5.8 mph - N/A   Mostly Cloudy
11:55 PM 24.8 °F 20.5 °F 19.4 °F 80% 30.17 in 10.0 mi ENE 3.5 mph - N/A   Overcast